Date String (YYYY-MM-DD hh:mm:ss) UTC,Instrument flags,absolute air pressure of the measurement (hPa),sample flow rate (lpm),inlet stack bypass flow (lpm),air temperature of the measurement (°C),ambient temperature measured by the external sensor (°C),aerosol sample conditioner tube jacket temperature (°C),OPC LED temperature (°C),internal box temperature (°C),relative humidity of the measurement (%),span deviation,mass concentration of particles derived from Lorenz-Mie calculation of OPC scattering (μg/m³),mass concentration of particles derived from Lorenz-Mie calculation of OPC scattering (μg/m³),mass concentration of particles derived from Lorenz-Mie calculation of OPC scattering (μg/m³)
DateTimeUTC,F1_M11,P_M11,Q1_M11,Q2_M11,T1_M11,T2_M11,T3_M11,T4_M11,T5_M11,U1_M11,ZSPAN_M11,X2_M11,X0_M11,X1_M11
2024-02-26 03:00:00,SystemResetWarning,0822.4,5.00,000.00,022.0,021.1,000.0,030.3,023.6,09.4,0000.0,0001.53,0005.74,0001.05
2024-02-26 03:01:00,SystemResetWarning,0822.2,5.00,000.00,022.0,021.1,000.0,030.3,023.7,09.3,0000.0,0001.55,0005.61,0001.06
2024-02-26 03:02:00,SystemResetWarning,0822.1,5.00,000.00,022.0,021.1,000.0,030.3,023.7,09.3,0000.0,0001.55,0004.68,0001.06
2024-02-26 03:03:00,SystemResetWarning,0822.1,5.00,000.00,022.0,021.1,000.0,030.3,023.6,09.4,0000.0,0001.58,0004.69,0001.06
2024-02-26 03:04:00,SystemResetWarning,0822.2,5.00,000.00,022.0,021.1,000.0,030.3,023.6,09.3,0000.0,0001.62,0004.80,0001.07
2024-02-26 03:05:00,SystemResetWarning,0822.2,5.00,000.00,022.0,021.1,000.0,030.3,023.6,09.3,0000.0,0001.64,0004.82,0001.08
2024-02-26 03:06:00,SystemResetWarning,0822.2,5.00,000.00,022.0,021.1,000.0,030.3,023.6,09.3,0000.0,0001.64,0004.82,0001.08
2024-02-26 03:07:00,SystemResetWarning,0822.3,5.00,000.00,021.9,021.1,000.0,030.3,023.6,09.4,0000.0,0001.62,0003.28,0001.07
2024-02-26 03:08:00,SystemResetWarning,0822.4,5.00,000.00,021.9,021.1,000.0,030.3,023.6,09.4,0000.0,0001.55,0002.95,0001.07
2024-02-26 03:09:00,SystemResetWarning,0822.3,5.00,000.00,021.9,021.1,000.0,030.3,023.6,09.5,0000.0,0001.56,0002.95,0001.07
2024-02-26 03:10:00,SystemResetWarning,0822.3,5.00,000.00,021.9,021.1,000.0,030.3,023.6,09.4,0000.0,0001.55,0002.95,0001.06
2024-02-26 03:11:00,SystemResetWarning,0822.3,5.01,000.00,021.9,021.1,000.0,030.3,023.6,09.5,0000.0,0001.54,0002.93,0001.05
2024-02-26 03:12:00,SystemResetWarning,0822.3,5.00,000.00,021.9,021.1,000.0,030.3,023.6,09.6,0000.0,0001.52,0002.79,0001.03
2024-02-26 03:13:00,SystemResetWarning,0822.4,4.99,000.00,021.9,021.1,000.0,030.3,023.6,09.6,0000.0,0001.49,0002.66,0001.02
2024-02-26 03:14:00,SystemResetWarning,0822.3,5.00,000.00,021.9,021.1,000.0,030.2,023.6,09.6,0000.0,0001.48,0002.69,0001.01
2024-02-26 03:15:00,SystemResetWarning,0822.3,5.00,000.00,021.9,021.1,000.0,030.2,023.6,09.6,0000.0,0001.47,0003.08,0001.01
2024-02-26 03:16:00,SystemResetWarning,0822.3,4.99,000.00,021.9,021.1,000.0,030.2,023.6,09.6,0000.0,0001.49,0003.35,0001.00
2024-02-26 03:17:00,SystemResetWarning,0822.3,4.99,000.00,021.9,021.1,000.0,030.2,023.6,09.6,0000.0,0001.47,0003.35,0001.00
2024-02-26 03:18:00,SystemResetWarning,0822.3,5.01,000.00,021.9,021.1,000.0,030.2,023.6,09.5,0000.0,0001.48,0003.19,0001.02
2024-02-26 03:19:00,SystemResetWarning,0822.3,5.01,000.00,021.9,021.0,000.0,030.2,023.5,09.5,0000.0,0001.51,0003.49,0001.04
2024-02-26 03:20:00,SystemResetWarning,0822.2,5.01,000.00,021.9,021.0,000.0,030.2,023.5,09.6,0000.0,0001.56,0003.59,0001.04
2024-02-26 03:21:00,SystemResetWarning,0822.3,5.00,000.00,021.9,021.0,000.0,030.2,023.5,09.5,0000.0,0001.57,0003.62,0001.05
2024-02-26 03:22:00,SystemResetWarning,0822.2,5.00,000.00,021.9,021.0,000.0,030.2,023.5,09.5,0000.0,0001.58,0003.66,0001.06
2024-02-26 03:23:00,SystemResetWarning,0822.1,5.00,000.00,021.9,021.0,000.0,030.2,023.5,09.6,0000.0,0001.60,0003.90,0001.07
2024-02-26 03:24:00,SystemResetWarning,0822.3,4.99,000.00,021.8,021.0,000.0,030.2,023.5,09.6,0000.0,0001.63,0003.97,0001.08
2024-02-26 03:25:00,SystemResetWarning,0822.3,5.02,000.00,021.8,021.0,000.0,030.2,023.5,09.7,0000.0,0001.64,0004.04,0001.08
2024-02-26 03:26:00,SystemResetWarning,0822.3,5.01,000.00,021.8,021.0,000.0,030.2,023.5,09.7,0000.0,0001.66,0003.76,0001.08
2024-02-26 03:27:00,SystemResetWarning,0822.3,4.99,000.00,021.8,021.0,000.0,030.2,023.5,09.7,0000.0,0001.63,0003.63,0001.07
2024-02-26 03:28:00,SystemResetWarning,0822.2,4.99,000.00,021.8,021.0,000.0,030.1,023.5,09.6,0000.0,0001.65,0003.97,0001.08
2024-02-26 03:29:00,SystemResetWarning,0822.3,5.00,000.00,021.8,021.0,000.0,030.2,023.5,09.6,0000.0,0001.66,0004.38,0001.07
2024-02-26 03:30:00,SystemResetWarning,0822.3,5.01,000.00,021.8,021.0,000.0,030.2,023.5,09.7,0000.0,0001.66,0004.26,0001.06
2024-02-26 03:31:00,SystemResetWarning,0822.4,5.00,000.00,021.8,021.0,000.0,030.1,023.4,09.7,0000.0,0001.64,0004.13,0001.06
2024-02-26 03:32:00,SystemResetWarning,0822.4,4.99,000.00,021.8,021.0,000.0,030.1,023.4,09.7,0000.0,0001.65,0004.12,0001.05
2024-02-26 03:33:00,SystemResetWarning,0822.4,5.00,000.00,021.8,021.0,000.0,030.1,023.4,09.7,0000.0,0001.66,0004.13,0001.05
2024-02-26 03:34:00,SystemResetWarning,0822.3,5.00,000.00,021.8,021.0,000.0,030.1,023.4,09.7,0000.0,0001.64,0004.00,0001.06
2024-02-26 03:35:00,SystemResetWarning,0822.4,5.01,000.00,021.8,020.9,000.0,030.1,023.4,09.6,0000.0,0001.66,0004.01,0001.06
2024-02-26 03:36:00,SystemResetWarning,0822.4,5.00,000.00,021.8,020.9,000.0,030.1,023.4,09.8,0000.0,0001.68,0004.03,0001.07
2024-02-26 03:37:00,SystemResetWarning,0822.5,5.00,000.00,021.8,020.9,000.0,030.1,023.4,09.8,0000.0,0001.72,0005.23,0001.07
2024-02-26 03:38:00,SystemResetWarning,0822.5,5.00,000.00,021.8,020.9,000.0,030.1,023.4,09.9,0000.0,0001.73,0005.48,0001.07
2024-02-26 03:39:00,SystemResetWarning,0822.3,5.00,000.00,021.8,020.9,000.0,030.1,023.4,09.8,0000.0,0001.75,0005.25,0001.08
2024-02-26 03:40:00,SystemResetWarning,0822.3,5.00,000.00,021.8,020.9,000.0,030.1,023.4,09.8,0000.0,0001.78,0004.89,0001.08
2024-02-26 03:41:00,SystemResetWarning,0822.3,5.01,000.00,021.8,020.9,000.0,030.1,023.4,09.9,0000.0,0001.80,0005.16,0001.07
2024-02-26 03:42:00,SystemResetWarning,0822.2,5.00,000.00,021.8,020.9,000.0,030.1,023.4,09.9,0000.0,0001.84,0005.32,0001.07
2024-02-26 03:43:00,SystemResetWarning,0822.2,4.99,000.00,021.7,020.9,000.0,030.1,023.4,09.8,0000.0,0001.85,0006.33,0001.08
2024-02-26 03:44:00,SystemResetWarning,0822.3,5.01,000.00,021.7,020.9,000.0,030.1,023.4,09.7,0000.0,0001.82,0006.46,0001.08
2024-02-26 03:45:00,SystemResetWarning,0822.4,5.00,000.00,021.7,020.9,000.0,030.0,023.4,09.9,0000.0,0001.89,0006.64,0001.08
2024-02-26 03:46:00,SystemResetWarning,0822.4,5.00,000.00,021.7,020.9,000.0,030.0,023.4,10.0,0000.0,0001.90,0007.11,0001.08
2024-02-26 03:47:00,SystemResetWarning,0822.4,5.00,000.00,021.7,020.9,000.0,030.0,023.4,10.0,0000.0,0001.91,0007.57,0001.09
2024-02-26 03:48:00,SystemResetWarning,0822.6,4.99,000.00,021.7,020.9,000.0,030.0,023.4,10.0,0000.0,0001.85,0006.73,0001.08
2024-02-26 03:49:00,SystemResetWarning,0822.5,5.00,000.00,021.7,020.9,000.0,030.0,023.4,10.1,0000.0,0001.86,0006.46,0001.09
2024-02-26 03:50:00,SystemResetWarning,0822.3,5.00,000.00,021.7,020.9,000.0,030.0,023.3,09.9,0000.0,0001.82,0007.04,0001.08
2024-02-26 03:51:00,SystemResetWarning,0822.3,5.00,000.00,021.7,020.9,000.0,030.0,023.4,09.9,0000.0,0001.77,0006.89,0001.08
2024-02-26 03:52:00,SystemResetWarning,0822.8,5.01,000.00,021.7,020.9,000.0,030.0,023.3,09.9,0000.0,0001.77,0006.82,0001.09
2024-02-26 03:53:00,SystemResetWarning,0822.5,5.01,000.00,021.7,020.9,000.0,030.0,023.3,10.0,0000.0,0001.73,0007.18,0001.10
2024-02-26 03:54:00,SystemResetWarning,0822.4,5.00,000.00,021.7,020.9,000.0,030.0,023.3,10.0,0000.0,0001.67,0006.93,0001.10
2024-02-26 03:55:00,SystemResetWarning,0822.5,5.00,000.00,021.7,020.9,000.0,030.0,023.3,10.0,0000.0,0001.75,0007.45,0001.11
2024-02-26 03:56:00,SystemResetWarning,0822.6,4.99,000.00,021.7,020.9,000.0,030.0,023.3,10.1,0000.0,0001.69,0007.71,0001.09
2024-02-26 03:57:00,SystemResetWarning,0822.4,5.00,000.00,021.7,020.9,000.0,030.0,023.3,10.0,0000.0,0001.67,0007.45,0001.09
2024-02-26 03:58:00,SystemResetWarning,0822.6,5.00,000.00,021.7,020.8,000.0,030.0,023.3,10.0,0000.0,0001.66,0006.90,0001.09
2024-02-26 03:59:00,SystemResetWarning,0822.5,5.00,000.00,021.7,020.8,000.0,030.0,023.3,10.0,0000.0,0001.65,0006.97,0001.10
